Flag for Greenland Weather past 2 weeks in Qaanaaq, Greenland

Now
32 °F

Clear.


Feels Like: 26 °F
Forecast: 23 / 31 °F
Wind: 6 mph from East

Location: Thule A. B.

Current Time: Aug 28, 2015 at 6:02:11 AM

Latest Report: Aug 28, 2015 at 4:58 AM


Visibility: N/A

Pressure: 29.71 "Hg

Humidity: 75%

Dew point: 25 °F

Location of QaanaaqLocation

Historic Weather in Qaanaaq — Graph

°F

Qaanaaq temperature yesterday

Maximum temperature yesterday: 41 °F (at 1:58 PM)
Minimum temperature yesterday: 28 °F (at 3:58 AM)
Average temperature yesterday: 36 °F

Past Weeks' High & Low Weather Summary

 TemperatureHumidityPressure
High54 °F (Aug 16, 1:58 PM)100% (Aug 22, 2:58 AM)30.21 "Hg (Aug 22, 2:58 AM)
Low28 °F (Aug 27, 3:58 AM)33% (Aug 27, 4:58 PM)29.49 "Hg (Aug 17, 5:58 AM)
Average41 °F69%29.94 "Hg
* Reported Aug 13 4:58 AM — Aug 28 4:58 AM, Qaanaaq, Weather by CustomWeather, © 2015

Note: Actual official high and low records may vary slightly from our data, if they occured in-between our weather recording intervals... More about our weather records

Advertising

Qaanaaq weather history for previous 24 hours

 ConditionsComfort  
Time TempWeatherWind HumidityBarometerVisibility
4:58 AM
Fri, Aug 28
32 °FClear.6 mph75%29.71 "HgN/A
3:58 AM32 °FClear.6 mph75%29.73 "HgN/A
2:58 AM32 °FClear.6 mph75%29.76 "HgN/A
1:58 AM34 °FClear.5 mph70%29.79 "HgN/A
12:58 AM34 °FSunny.7 mph70%29.83 "HgN/A
11:58 PM
Thu, Aug 27
36 °FSunny.3 mph65%29.84 "HgN/A
10:58 PM36 °FSunny.No wind65%29.86 "HgN/A
9:58 PM37 °FSunny.1 mph65%29.88 "HgN/A
8:58 PM39 °FSunny.3 mph61%29.90 "HgN/A
7:58 PM39 °FSunny.6 mph56%29.93 "HgN/A
6:58 PM39 °FSunny.5 mph48%29.93 "HgN/A
5:58 PM41 °FSunny.7 mph39%29.96 "HgN/A
4:58 PM41 °FSunny.7 mph33%29.98 "HgN/A
3:58 PM41 °FSunny.7 mph42%29.98 "HgN/A
2:58 PM40 °FSunny.8 mph38%30.01 "HgN/A
1:58 PM41 °FSunny.1 mph42%30.02 "HgN/A
12:58 PM39 °FSunny.6 mph46%30.04 "HgN/A
11:58 AM39 °FSunny.6 mph45%30.06 "HgN/A
10:58 AM37 °FSunny.3 mph48%30.07 "HgN/A
9:58 AM36 °FSunny.1 mph60%30.09 "HgN/A
8:58 AM34 °FSunny.6 mph65%30.10 "HgN/A
7:58 AM32 °FSunny.8 mph69%30.11 "HgN/A
6:58 AM30 °FClear.7 mph69%30.11 "HgN/A
Weather by CustomWeather, © 2015

See weather overviewHow to use our weather pages